Regional Weather Roundup
Issued by NWS Raleigh/Durham, NC

Home | Current Version | Previous Version | Text Only | Print | Product List | Glossary On
Versions: 1 2 3 4 5 6 7 8 9 10 11 12 13 14 15 16 17 18 19 20 21 22 23 24 25 26 27 28 29 30 31 32 33 34 35 36 37 38 39 40 41 42 43 44 45 46 47 48 49 50
000
ASUS42 KRAH 290810
RWRRAH
NORTH CAROLINA WEATHER ROUNDUP
NATIONAL WEATHER SERVICE RALEIGH NC
400 AM EDT THU SEP 29 2016

NOTE: "FAIR" INDICATES FEW OR NO CLOUDS BELOW 12,000 FEET WITH NO
SIGNIFICANT WEATHER AND/OR OBSTRUCTIONS TO VISIBILITY.

NCZ001-053-055-056-065-067-290900-
WESTERN NORTH CAROLINA

CITY           SKY/WX    TMP DP  RH WIND       PRES   REMARKS
ASHEVILLE      CLEAR     54  50  86 N5        29.97F
JEFFERSON      PTCLDY    55  54  96 SW3       30.01F
MORGANTON      FOG       65  65 100 N3        29.97F VSB 3/4
HICKORY        FOG       65  65 100 CALM      29.92S VSB 1/2
RUTHERFORDTON  CLEAR     57  57 100 CALM      29.92F
MOUNT AIRY     CLOUDY    68  66  93 E3        29.96F
BOONE          PTCLDY    49  49 100 CALM      30.02S FOG
$$

NCZ021-022-025-041-071-084-088-290900-
CENTRAL NORTH CAROLINA

CITY           SKY/WX    TMP DP  RH WIND       PRES   REMARKS
CHARLOTTE      PTCLDY    69  66  90 S6        29.90F
GREENSBORO     CLOUDY    64  64 100 SE3       29.94S
WINSTON-SALEM  CLOUDY    65  63  93 SE6       29.95F
RALEIGH-DURHAM TSTM      66  65  96 S8        29.98S
FORT BRAGG     NOT AVBL
FAYETTEVILLE   TSTM      66  64  93 NE10      29.96F FOG
BURLINGTON     MOCLDY    64  64 100 VRB6      29.94S
LAURINBURG     TSTM      69  68  96 N12       29.94S FOG
$$

NCZ011-015-027-028-043-044-047-080-103-290900-
NORTHEASTERN NORTH CAROLINA

CITY           SKY/WX    TMP DP  RH WIND       PRES   REMARKS
ROCKY MT-WILSO CLOUDY    67  67 100 NE3       29.98F
GREENVILLE     CLOUDY    70  70 100 CALM      30.01S
WASHINGTON     CLOUDY    70  69  97 CALM      30.00S
ELIZABETH CITY CLEAR     73  71  93 E3        30.01S
MANTEO         CLEAR     73  73 100 SE3       30.01S
CAPE HATTERAS  CLEAR     74  72  93 E5        30.00F
$$

NCZ078-087-090-091-093-098-101-290900-
SOUTHEASTERN NORTH CAROLINA

CITY           SKY/WX    TMP DP  RH WIND       PRES   REMARKS
LUMBERTON      MOCLDY    74  72  93 E8        29.92F
GOLDSBORO      CLOUDY    68  68 100 CALM      29.97F
KINSTON        CLOUDY    71  70  97 NW3       30.00R
KENANSVILLE    CLOUDY    70  66  88 N7        29.99S
NEW BERN       CLOUDY    70  68  93 CALM      29.99S
CHERRY POINT   PTCLDY    73  71  93 SE6       29.99S
BEAUFORT       PTCLDY    77  74  90 SE5       29.98F
JACKSONVILLE   PTCLDY    73  71  93 CALM      29.96F
WILMINGTON     CLEAR     75  70  84 E3        29.95F
$$




USA.gov is the U.S. government's official web portal to all federal, state and local government web resources and services.